McAlester, OK

2:40 PM CST on December 05, 2019 (GMT -0600)
McAlester Regional

Weather History for KMLC - November, 2019

Change the Weather History Date:

Thursday, November 14, 2019

  Actual Average Record
Temperature  
Mean Temperature 40 °F -  
Max Temperature 54 °F 61 °F 82 °F (1999)
Min Temperature 26 °F 42 °F 19 °F (1963)
Degree Days  
Heating Degree Days 25    
Moisture  
Dew Point 27 °F    
Average Humidity 67    
Maximum Humidity 92    
Minimum Humidity 41    
Precipitation  
Precipitation 0.00 in - - ()
Sea Level Pressure  
Sea Level Pressure 30.32 in    
Wind  
Wind Speed 3 mph ()    
Max Wind Speed 17 mph    
Max Gust Speed 24 mph    
Visibility 10.0 miles    
Events      
Averages and records for this station are not official NWS values.
T = Trace of Precipitation, MM = Missing Value Source: Averaged Metar Reports

Daily Weather History Graph

Daily Weather History Graph

Search for Another Location

Airport or City:

Astronomy

Nov. 14, 2019 Rise Set
Actual Time 6:56 AM CST 5:18 PM CST
Civil Twilight 6:29 AM CST 5:45 PM CST
Nautical Twilight 5:58 AM CST 6:15 PM CST
Astronomical Twilight 5:28 AM CST 6:45 PM CST
Moon 7:08 PM CST (11/14) 8:50 AM CST (11/14)
Length of Visible Light 11h 15m
Length of Day
10h 22m
Waning Gibbous, 95% of the Moon is Illuminated
Nov 14
Waning Gibbous
Nov 19
Last Quarter
Nov 26
New
Dec 4
First Quarter
Dec 11
Full

Hourly Weather History & Observations

Time (CST) Temp. Windchill Dew Point Humidity Pressure Visibility Wind Dir Wind Speed Gust Speed Precip Events Conditions
12:53 AM 37.0 °F - 19.0 °F 48% 30.18 in 10.0 mi Calm Calm - N/A   Scattered Clouds
1:53 AM 36.0 °F - 24.1 °F 62% 30.19 in 10.0 mi Calm Calm - N/A   Mostly Cloudy
2:53 AM 32.0 °F - 24.1 °F 73% 30.21 in 10.0 mi Calm Calm - N/A   Scattered Clouds
3:53 AM 28.9 °F - 23.0 °F 78% 30.22 in 10.0 mi Calm Calm - N/A   Scattered Clouds
4:53 AM 28.0 °F - 23.0 °F 81% 30.24 in 10.0 mi Calm Calm - N/A   Partly Cloudy
5:53 AM 27.0 °F - 21.9 °F 81% 30.26 in 10.0 mi Calm Calm - N/A   Clear
6:53 AM 26.1 °F - 21.9 °F 84% 30.28 in 10.0 mi Calm Calm - N/A   Clear
7:53 AM 30.0 °F - 26.1 °F 85% 30.30 in 10.0 mi Calm Calm - N/A   Clear
8:53 AM 42.1 °F 37.7 °F 25.0 °F 51% 30.32 in 10.0 mi North 6.9 mph - N/A   Partly Cloudy
9:53 AM 45.0 °F 39.7 °F 24.1 °F 44% 30.35 in 10.0 mi North 10.4 mph - N/A   Clear
10:53 AM 48.9 °F - 28.9 °F 46% 30.36 in 10.0 mi NNE 11.5 mph - N/A   Partly Cloudy
11:53 AM 51.1 °F - 30.9 °F 46% 30.36 in 10.0 mi NNE 17.3 mph 23.0 mph N/A   Clear
12:53 PM 53.1 °F - 30.9 °F 43% 30.34 in 10.0 mi North 16.1 mph - N/A   Clear
2:53 PM 54.0 °F - 30.9 °F 41% 30.33 in 10.0 mi North 16.1 mph 24.2 mph N/A   Partly Cloudy
3:53 PM 52.0 °F - 30.9 °F 45% 30.34 in 10.0 mi NNE 9.2 mph - N/A   Clear
4:53 PM 50.0 °F - 32.0 °F 50% 30.35 in 10.0 mi NNE 4.6 mph - N/A   Clear
5:53 PM 45.0 °F 43.5 °F 30.9 °F 58% 30.36 in 10.0 mi North 3.5 mph - N/A   Partly Cloudy
6:53 PM 36.0 °F - 30.0 °F 79% 30.39 in 10.0 mi Calm Calm - N/A   Partly Cloudy
7:53 PM 34.0 °F - 28.9 °F 82% 30.40 in 10.0 mi Calm Calm - N/A   Scattered Clouds
8:53 PM 32.0 °F - 28.9 °F 88% 30.41 in 10.0 mi Calm Calm - N/A   Clear
9:53 PM 30.9 °F - 28.0 °F 89% 30.42 in 10.0 mi Calm Calm - N/A   Mostly Cloudy
10:53 PM 30.0 °F - 28.0 °F 92% 30.42 in 10.0 mi Calm Calm - N/A   Clear
11:53 PM 30.0 °F - 27.0 °F 88% 30.42 in 10.0 mi Calm Calm - N/A   Mostly Cloudy